Weather History for KFLL - July, 2014

Change the Weather History Date:

Thursday, July 31, 2014

  Actual Average Record
Temperature  
Mean Temperature 86 °F 85 °F  
Max Temperature 93 °F 91 °F 96 °F (1986)
Min Temperature 78 °F 79 °F 68 °F (1978)
Degree Days  
Heating Degree Days 0 0  
Month to date heating degree days 0 0  
Since 1 June heating degree days 0 0  
Since 1 July heating degree days 0 0  
Cooling Degree Days 21 20  
Month to date cooling degree days 614 598  
Year to date cooling degree days 2665 2559  
Since 1 June cooling degree days 1130 1141  
Growing Degree Days 36 (Base 50)    
Moisture  
Dew Point 74 °F    
Average Humidity 72    
Maximum Humidity 91    
Minimum Humidity 52    
Precipitation  
Precipitation T in 0.18 in 1.44 in (2004)
Month to date precipitation 9.18 5.98  
Year to date precipitation 38.42 33.63  
Snow  
Snow 0.00 in - - ()
Month to date snowfall 0.0  
Since 1 June snowfall 0.0  
Since 1 July snowfall 0.0  
Snow Depth 0.00 in    
Sea Level Pressure  
Sea Level Pressure 29.98 in    
Wind  
Wind Speed 7 mph (SSW)    
Max Wind Speed 20 mph    
Max Gust Speed 24 mph    
Visibility 10 miles    
Events Rain , Thunderstorm    
T = Trace of Precipitation, MM = Missing Value Source: NWS Daily Summary

Daily Weather History Graph

Daily Weather History Graph

Search for Another Location

Airport or City:

Trip Planner

Search our weather history database for the weather conditions in past years. The results will help you decide how hot, cold, wet, or windy it might be!

Date:

Astronomy

Jul. 31, 2014 Rise Set
Actual Time 6:45 AM EDT 8:07 PM EDT
Civil Twilight 6:21 AM EDT 8:32 PM EDT
Nautical Twilight 5:51 AM EDT 9:02 PM EDT
Astronomical Twilight 5:20 AM EDT 9:32 PM EDT
Moon 10:41 AM EDT (7/31) 10:52 PM EDT (7/31)
Length of Visible Light 14h 11m
Length of Day
13h 21m
Waxing Crescent, 19% of the Moon is Illuminated
Jul 31
Waxing Crescent
Aug 3
First Quarter
Aug 10
Full
Aug 17
Last Quarter
Aug 25
New

Hourly Weather History & Observations

Time (EDT) Temp. Heat Index Dew Point Humidity Pressure Visibility Wind Dir Wind Speed Gust Speed Precip Events Conditions
12:53 AM 80.1 °F 85.1 °F 75.0 °F 85% 29.98 in 10.0 mi Calm Calm - N/A   Mostly Cloudy
1:53 AM 80.1 °F 85.1 °F 75.0 °F 85% 29.98 in 10.0 mi Calm Calm - N/A   Mostly Cloudy
2:53 AM 80.1 °F 85.4 °F 75.9 °F 87% 29.97 in 10.0 mi SSW 3.5 mph - N/A   Mostly Cloudy
3:53 AM 80.1 °F 85.1 °F 75.0 °F 85% 29.96 in 10.0 mi SSW 3.5 mph - N/A   Mostly Cloudy
4:53 AM 79.0 °F - 73.0 °F 82% 29.95 in 10.0 mi South 3.5 mph - N/A   Mostly Cloudy
5:53 AM 80.1 °F 84.2 °F 73.0 °F 79% 29.95 in 10.0 mi South 4.6 mph - N/A   Mostly Cloudy
6:53 AM 79.0 °F - 73.9 °F 84% 29.97 in 10.0 mi SSW 3.5 mph - N/A   Mostly Cloudy
7:53 AM 80.1 °F 84.5 °F 73.9 °F 81% 29.98 in 10.0 mi SSW 3.5 mph - N/A   Mostly Cloudy
8:53 AM 82.9 °F 89.4 °F 73.9 °F 74% 29.99 in 10.0 mi SSW 5.8 mph - N/A   Mostly Cloudy
9:53 AM 84.9 °F 93.3 °F 75.0 °F 72% 30.00 in 10.0 mi SW 5.8 mph - N/A   Mostly Cloudy
10:53 AM 88.0 °F 96.5 °F 73.9 °F 63% 29.99 in 10.0 mi SSE 9.2 mph - N/A   Mostly Cloudy
11:53 AM 90.0 °F 101.3 °F 75.9 °F 63% 29.99 in 10.0 mi SE 10.4 mph - N/A   Mostly Cloudy
12:53 PM 91.0 °F 99.3 °F 73.0 °F 55% 29.98 in 10.0 mi SSE 15.0 mph - N/A   Mostly Cloudy
1:53 PM 90.0 °F 97.9 °F 73.0 °F 57% 29.98 in 10.0 mi SE 16.1 mph - N/A   Mostly Cloudy
2:53 PM 93.0 °F 101.9 °F 73.0 °F 52% 29.96 in 10.0 mi SE 18.4 mph - N/A   Mostly Cloudy
3:53 PM 89.1 °F 98.0 °F 73.9 °F 61% 29.96 in 10.0 mi SE 9.2 mph - N/A   Mostly Cloudy
4:37 PM 80.1 °F 85.4 °F 75.9 °F 87% 29.98 in 8.0 mi WNW 9.2 mph - 0.00 in Rain Light Rain
4:53 PM 78.1 °F - 73.9 °F 87% 29.98 in 10.0 mi NW 11.5 mph - 0.00 in   Mostly Cloudy
5:01 PM 78.1 °F - 73.9 °F 87% 29.98 in 10.0 mi NW 12.7 mph - N/A Thunderstorm Thunderstorm
5:53 PM 80.1 °F 85.1 °F 75.0 °F 85% 29.99 in 10.0 mi WSW 9.2 mph 18.4 mph N/A   Mostly Cloudy
6:53 PM 80.1 °F 84.5 °F 73.9 °F 81% 29.99 in 10.0 mi WSW 9.2 mph - N/A   Mostly Cloudy
7:53 PM 80.1 °F 85.1 °F 75.0 °F 85% 29.99 in 10.0 mi NW 4.6 mph - N/A   Mostly Cloudy
8:53 PM 79.0 °F - 75.0 °F 88% 29.99 in 10.0 mi Calm Calm - N/A   Partly Cloudy
9:53 PM 79.0 °F - 75.0 °F 88% 30.00 in 10.0 mi SSW 3.5 mph - N/A   Partly Cloudy
10:53 PM 80.1 °F 85.1 °F 75.0 °F 85% 30.02 in 10.0 mi SSE 4.6 mph - N/A   Partly Cloudy
11:53 PM 81.0 °F 86.2 °F 73.9 °F 79% 30.02 in 10.0 mi SE 5.8 mph - N/A   Partly Cloudy